AirNav   Duncan Aviation - Near you to keep you flying
 
 923 users online  

KNCY Naval Weapons Station Helipad
Yorktown, Virginia, USA

GOING TO YORKTOWN?


FAA INFORMATION EFFECTIVE 26 JANUARY 2023

Location

FAA Identifier: NCY
Lat/Long: 37-16-04.5210N 076-34-23.8300W
37-16.075350N 076-34.397167W
37.2679225,-76.5732861
(estimated)
Elevation: 33 ft. / 10 m (estimated)
Variation: 09W (1985)
From city: 3 miles NW of YORKTOWN, VA
Time zone: UTC -5 (UTC -4 during Daylight Saving Time)
Zip code: 23691

Heliport Operations

Heliport use: Private use. Permission required prior to landing
Activation date: 12/1974
Control tower: no
ARTCC: WASHINGTON CENTER
FSS: LEESBURG FLIGHT SERVICE STATION
Attendance: IREG
Wind indicator: no
Segmented circle: no

Heliport Communications

WX AWOS-3 at JGG (7 nm W): 120.625 (757-220-8810)
WX ASOS at PHF (9 nm SE): PHONE 757-874-3682
WX AWOS-3 at FYJ (18 nm NW): 132.825 (804-785-2307)

Nearby radio navigation aids

VOR radial/distance  VOR name  Freq  Var
HCMr156/12.7HARCUM VORTAC108.8007W
HPWr104/26.2HOPEWELL VORTAC112.0006W
CCVr270/27.9CAPE CHARLES VORTAC112.2010W
ORFr329/28.8NORFOLK VORTAC116.9007W
RICr121/38.3RICHMOND VORTAC114.1009W
FKNr041/39.3FRANKLIN VORTAC110.6009W

 
NDB name  Hdg/Dist  Freq  Var  ID
WAKEFIELD061/26.727411WAKQ .- -.- --.-

Heliport Services

Airframe service: NONE
Powerplant service: NONE

Runway Information

Helipad H1

Dimensions: 100 x 100 ft. / 30 x 30 m
Surface: concrete
Latitude: 37-16.075350N
Longitude: 076-34.397167W
Elevation: 33.0 ft.
Traffic pattern: leftleft

Heliport Ownership and Management from official FAA records

Ownership: U.S. Navy
Owner: NAVAL WEAPONS STN.
YORKTOWN, VA 23691
Manager: JERRY B. GRIFFIN
NAVAL WEAPONS STN
YORKTOWN, VA 23691
Phone 757-887-4426

Additional Remarks

CTC AIRPORT ADVISORY 236.2/344.4.
FOR CD CTC NORFOLK APCH AT 757-464-0757.

Instrument Procedures

There are no published instrument procedures at KNCY.

Some nearby airports with instrument procedures:

W94 - Camp Peary Landing Strip Airport (4 nm NW)
KJGG - Williamsburg-Jamestown Airport (7 nm W)
KFAF - Felker Army Airfield (8 nm S)
KPHF - Newport News/Williamsburg International Airport (9 nm SE)
KLFI - Langley Air Force Base (15 nm SE)
KFYJ - Middle Peninsula Regional Airport (18 nm NW)
 
Loc | Ops | Rwys | IFR | FBO | Links
Com | Nav | Svcs | Stats | Notes
Area around KNCY (Naval Weapons Station Helipad)
 
Road maps at: MapQuest Bing Google
 
Aerial photo
No photo
 
Sectional chart

 
Airport distance calculator
Flying to Naval Weapons Station Helipad? Find the distance to fly.

From to KNCY

Sunrise and sunset
Times for 28-Jan-2023
 Local
(UTC-5)
 Zulu
(UTC)
Morning civil twilight06:4611:46
Sunrise07:1412:14
Sunset17:2522:25
Evening civil twilight17:5322:53

Current date and time
Zulu (UTC)  29-Jan-2023 02:46:57
Local (UTC-5)  28-Jan-2023 21:46:57
 
METAR
KPHF 
9nm SE 
290154Z 00000KT 10SM CLR 04/00 A3038 RMK AO2 SLP287 T00390000
KFAF 
9nm S 
290155Z AUTO 20004KT 10SM CLR 09/01 A3035 RMK AO2 SLP281 T00860008 $
KLFI 
16nm SE 
290155Z AUTO 19005KT 10SM CLR 08/01 A3037 RMK AO2 SLP291 T00770013 $
KFYJ 
18nm NW 
290235Z AUTO 00000KT 10SM CLR 03/00 A3038 RMK AO1 T00250000
TAF
KPHF 
9nm SE 
281720Z 2818/2918 24008KT P6SM SKC FM290000 VRB03KT P6SM FEW250 FM291600 21008KT P6SM BKN150
KFAF 
9nm S 
280300Z 2803/2909 VRB06KT 9999 SKC QNH3023INS BECMG 2814/2815 24012G18KT 9999 FEW060 QNH3030INS BECMG 2819/2820 VRB06KT 9999 SKC QNH3031INS TX13/2819Z TN01/2803Z LAST NO AMDS 2804 NEXT 3011
NOTAMs
Click for the latest NOTAMs
NOTAMs are issued by the DoD/FAA and will open in a separate window not controlled by AirNav.

 

 
 

Would you like to see your business listed on this page?

 If your business provides an interesting product or service to pilots, flight crews, aircraft, or users of the Naval Weapons Station Helipad, you should consider listing it here.  To start the listing process, click on the button below
 
Add a business
 

Other Pages about Naval Weapons Station Helipad

Update a link
 
Copyright © AirNav, LLC. All rights reserved. Privacy Policy  Contact